This is the latest recevied weather packets stored in our database for station/object KC2TER. If no packets are shown the sender has not sent any weather packets the latest 1 day(s).
| Time | Temp. | Humidity | Pressure | Rain* | Wind** | Luminosity | Snow |
|---|---|---|---|---|---|---|---|
| 1778024020 | 21.67° C | 61% | 1010.1 hPa | 0 mm | 0.89 m/s, 114° | 10 W/m² | - |
| 1778023717 | 21.67° C | 60% | 1009.9 hPa | 0 mm | 1.34 m/s, 104° | 13 W/m² | - |
| 1778023415 | 21.67° C | 59% | 1009.7 hPa | 0 mm | 1.34 m/s, 122° | 20 W/m² | - |
| 1778023111 | 22.22° C | 59% | 1009.9 hPa | 0 mm | 0.45 m/s, 102° | 27 W/m² | - |
| 1778022809 | 22.22° C | 58% | 1009.7 hPa | 0 mm | 0.45 m/s, 109° | 35 W/m² | - |
| 1778022507 | 22.22° C | 58% | 1009.6 hPa | 0 mm | 0.89 m/s, 120° | 39 W/m² | - |
| 1778022204 | 22.22° C | 58% | 1009.7 hPa | 0 mm | 0.89 m/s, 100° | 39 W/m² | - |
| 1778021901 | 22.22° C | 58% | 1009.7 hPa | 0 mm | 0.45 m/s, 106° | 34 W/m² | - |
| 1778021598 | 22.22° C | 58% | 1009.3 hPa | 0 mm | 1.34 m/s, 66° | 39 W/m² | - |
| 1778021293 | 22.78° C | 58% | 1009.3 hPa | 0 mm | 1.79 m/s, 146° | 44 W/m² | - |
| 1778020991 | 22.78° C | 58% | 1009.5 hPa | 0 mm | 1.34 m/s, 92° | 49 W/m² | - |
| 1778020688 | 22.78° C | 57% | 1009.3 hPa | 0 mm | 2.24 m/s, 131° | 57 W/m² | - |
| 1778020385 | 22.78° C | 57% | 1009.3 hPa | 0 mm | 2.68 m/s, 46° | 69 W/m² | - |
| 1778020080 | 22.78° C | 57% | 1009.4 hPa | 0 mm | 0.89 m/s, 95° | 69 W/m² | - |
| 1778019777 | 22.78° C | 58% | 1009.4 hPa | 0 mm | 1.34 m/s, 94° | 63 W/m² | - |
| 1778019474 | 22.78° C | 58% | 1009.2 hPa | 0 mm | 1.79 m/s, 116° | 59 W/m² | - |
| 1778019171 | 22.78° C | 57% | 1009.2 hPa | 0 mm | 1.34 m/s, 20° | 54 W/m² | - |
| 1778018868 | 23.33° C | 57% | 1009.1 hPa | 0 mm | 1.79 m/s, 56° | 55 W/m² | - |
| 1778018565 | 23.33° C | 57% | 1009.3 hPa | 0 mm | 0.89 m/s, 102° | 72 W/m² | - |
| 1778018263 | 23.89° C | 58% | 1009 hPa | 0 mm | 0.45 m/s, 107° | 76 W/m² | - |
| 1778017961 | 23.89° C | 58% | 1009 hPa | 0 mm | 0.89 m/s, 99° | 67 W/m² | - |
| 1778017658 | 23.89° C | 58% | 1009.3 hPa | 0 mm | 0.89 m/s, 104° | 84 W/m² | - |
| 1778017355 | 23.89° C | 58% | 1009 hPa | 0 mm | 0.45 m/s, 105° | 81 W/m² | - |
| 1778017053 | 23.89° C | 59% | 1009 hPa | 0 mm | 0.89 m/s, 100° | 68 W/m² | - |
| 1778016750 | 23.89° C | 59% | 1008.9 hPa | 0 mm | 1.34 m/s, 358° | 91 W/m² | - |
* Rain latest hour (hover to see other rain measurements)
** Current wind speed in m/s (hover to see current wind gust speed)